Wenatchee, WA
on Sunday, January 27, 2013

Sunday
Previous Day Next Day
Daily Summary
 ActualAverageRecord
Temperature
Mean Temperature °F 29°F  
Max Temperature 30°F 35°F 54°F (1962)
Min Temperature 26°F 23°F -5°F (1969)
Degree Days
Heating Degree Days 37 36  
Month to date heating degree days 1147 1016  
Since 1 July heating degree days 3810 4114  
Cooling Degree Days 0 0  
Month to date cooling degree days 0 0  
Year to date cooling degree days 0 0  
Moisture
Dew Point 24°F   
Average Humidity 88    
Maximum Humidity 93    
Minimum Humidity 85    
Precipitation
Precipitation 0.02 in 0.05 in 1.60 in (2006)
Month to date precipitation 1.32 1.68  
Year to date precipitation 1.32 1.68  
Snow
Snow 0.30 in 0.40 in in ()
Month to date snowfall 12.0 14.0  
Since 1 July snowfall 42.3 38.9  
Snow Depth 5.00 in   
Wind
Wind Speed 1 mph   
Max Wind Speed 7 mph   
Max Gust Speed mph   
Visibility 8 miles   
Events     

Key: T is trace of precipitation, MM is missing value
Source: NWS Daily Summary
Time(PST)TemperatureDew PointHumidity Pressure Visibility Wind DirectionWind SpeedGust SpeedPrecipitationEvents Conditions
12:55 AM 28.0°F 24.1°F 85% 30.01 in 10.0 miles Calm Calm - N/A   Overcast
1:55 AM 28.0°F 24.1°F 85% 30.01 in 10.0 miles Calm Calm - N/A   Overcast
2:55 AM 28.0°F 24.1°F 85% 30.02 in 10.0 miles Calm Calm - N/A   Overcast
3:27 AM 28.4°F 24.8°F 86% 29.97 in 10.0 miles Calm Calm - N/A   Overcast
3:55 AM 28.0°F 24.1°F 85% 30.01 in 10.0 miles Calm Calm - N/A   Overcast
4:55 AM 27.0°F 23.0°F 85% 30.01 in 10.0 miles Calm Calm - N/A   Overcast
5:55 AM 28.0°F 24.1°F 85% 30.02 in 10.0 miles Calm Calm - N/A   Overcast
6:55 AM 27.0°F 24.1°F 89% 30.03 in 9.0 miles Calm Calm - N/A   Overcast
7:48 AM 26.6°F 24.8°F 93% 29.99 in 7.0 miles Calm Calm - N/A   Overcast
7:55 AM 27.0°F 24.1°F 89% 30.04 in 6.0 miles Calm Calm - N/A   Overcast
8:55 AM 27.0°F 24.1°F 89% 30.05 in 6.0 miles Calm Calm - N/A   Overcast
9:55 AM 27.0°F 24.1°F 89% 30.06 in 8.0 miles Calm Calm - N/A   Overcast
10:17 AM 26.6°F 24.8°F 93% 30.01 in 9.0 miles Calm Calm - N/A   Overcast
10:55 AM 27.0°F 24.1°F 89% 30.06 in 7.0 miles SSE 3.5 mph - N/A   Overcast
11:22 AM 26.6°F 24.8°F 93% 30.01 in 6.0 miles ESE 3.5 mph - N/A   Overcast
11:55 AM 27.0°F 24.1°F 89% 30.05 in 5.0 miles Calm Calm - N/A   Overcast
12:55 PM 27.0°F 24.1°F 89% 30.02 in 4.0 miles Calm Calm - N/A   Overcast
1:07 PM 26.6°F 24.8°F 93% 29.97 in 5.0 miles Calm Calm - N/A   Overcast
1:55 PM 28.0°F 24.1°F 85% 30.01 in 8.0 miles Calm Calm - N/A   Overcast
2:55 PM 28.0°F 24.1°F 85% 30.01 in 10.0 miles East 4.6 mph - N/A   Overcast
3:55 PM 28.0°F 24.1°F 85% 30.00 in 8.0 miles Calm Calm - N/A   Overcast
4:55 PM 28.9°F 25.0°F 85% 30.00 in 7.0 miles Calm Calm - N/A   Overcast
5:55 PM 28.9°F 25.0°F 85% 29.99 in 8.0 miles Calm Calm - N/A   Overcast
6:55 PM 28.9°F 25.0°F 85% 30.00 in 8.0 miles Calm Calm - N/A   Overcast
7:55 PM 28.9°F 25.0°F 85% 29.99 in 7.0 miles Calm Calm - N/A   Overcast
8:55 PM 28.0°F 25.0°F 88% 29.99 in 6.0 miles West 3.5 mph - N/A   Overcast
9:55 PM 28.0°F 25.0°F 88% 29.99 in 6.0 miles WNW 6.9 mph - N/A   Overcast
10:10 PM 28.4°F 24.8°F 86% 29.94 in 6.0 miles West 5.8 mph - N/A   Overcast
10:55 PM 27.0°F 24.1°F 89% 29.99 in 6.0 miles West 6.9 mph - N/A   Overcast
11:55 PM 27.0°F 25.0°F 92% 29.99 in 4.0 miles WNW 5.8 mph - N/A   Overcast
Moon Phase
Jan. 27 Feb. 03 Feb. 10 Feb. 17 Feb. 25
Sunrise:07:32 AM (PST) Moon Rise:06:02 PM (PST)
Sunset:04:55 PM (PST) Moon Set:07:21 AM (PST)

Copyright © 2014 The Weather Underground, Inc.